Location: Prairie State College
(41.5244°N, 87.6382°W)
Time: 19:39:31
(UTC-05:00)

Cosmos 1140 Rocket - Visible Passes

Search period start: 19 April 2014 00:00
Search period end: 29 April 2014 00:00
Orbit: 746 x 769 km, 74.1° (Epoch: 19 April)

Date Brightness Start Highest point End Pass type
(mag) Time Alt. Az. Time Alt. Az. Time Alt. Az.
19 Apr 5.5 01:24:23 24° NNW 01:24:23 24° NNW 01:26:43 10° N visible
20 Apr 5.5 00:44:42 25° N 00:44:42 25° N 00:46:49 10° NNE visible
21 Apr 5.6 00:04:58 21° NNE 00:04:58 21° NNE 00:06:39 10° NNE visible
21 Apr 5.8 01:44:59 16° NW 01:44:59 16° NW 01:47:15 10° NNW visible
21 Apr 5.8 23:25:13 15° NE 23:25:13 15° NE 23:26:11 10° NE visible
22 Apr 5.5 01:05:14 24° NNW 01:05:14 24° NNW 01:07:54 10° N visible
23 Apr 5.2 00:25:26 29° N 00:25:26 29° N 00:28:08 10° N visible
23 Apr 5.1 23:45:36 29° NNE 23:45:36 29° NNE 23:48:07 10° NNE visible
24 Apr 6.0 01:25:37 13° NW 01:25:37 13° NW 01:27:55 10° NNW visible
24 Apr 5.2 23:05:43 24° NE 23:05:43 24° NE 23:07:49 10° NNE visible
25 Apr 5.5 00:45:43 22° NW 00:45:43 22° NW 00:48:59 10° N visible
25 Apr 5.4 22:25:47 16° NE 22:25:47 16° NE 22:27:09 10° NE visible
26 Apr 4.9 00:05:47 33° NNW 00:05:47 33° NNW 00:09:24 10° N visible
26 Apr 4.3 23:25:46 46° N 23:25:46 46° N 23:29:30 10° NNE visible
27 Apr 4.1 22:45:41 45° NE 22:45:41 45° NE 22:49:21 10° NNE visible
28 Apr 5.7 00:25:41 16° WNW 00:26:34 17° NW 00:29:54 10° NNW visible
28 Apr 4.5 22:05:31 30° ENE 22:05:31 30° ENE 22:08:54 10° NE visible
28 Apr 5.0 23:45:30 28° WNW 23:46:06 29° WNW 23:50:34 10° N visible
